Temp
62 62 62 62 61 61 61 61 61 61 61 62 62 62 62 62 61 56 62 76 75 74 75 75 74 73 71 67 69 67 57 54 59 63 63 68 68 75 78 76 77 82 77 78 79
62 62 62 62 61 61 61 61 61 61 61 61 62 61 61 61 55 62 75 75 75 75 75 71 70 72 67 65 68 64 56 62 69 68 66 72 71 74 74 72 73 76 79 79 78
61 61 62 61 62 61 61 61 61 61 61 61 61 61 61 59 60 73 78 75 75 76 75 73 72 69 60 62 66 63 63 68 71 71 75 71 70 75 71 67 73 74 75 77 76
61 61 61 61 61 61 60 61 61 61 62 61 61 61 62 58 59 76 77 75 75 77 74 71 68 61 59 60 69 63 68 71 69 72 72 70 75 73 71 73 80 82 79 78 76
60 60 60 60 60 60 60 60 60 61 61 61 62 62 60 62 69 77 77 76 76 76 74 70 65 62 59 64 64 62 66 70 71 68 68 72 69 71 69 77 81 81 81 78 77
59 59 59 60 60 60 60 60 59 60 60 61 62 62 63 63 80 78 78 77 77 73 74 72 70 69 64 64 63 66 66 64 67 65 67 68 68 70 75 78 77 78 74 74 74
59 59 59 59 60 60 60 60 59 59 61 62 63 68 64 71 80 76 77 74 78 79 76 76 75 71 70 64 66 69 61 66 66 65 64 69 67 67 73 76 73 73 72 73 73
59 59 59 59 59 60 61 60 59 60 62 63 64 63 66 80 78 77 74 78 80 80 78 80 78 71 67 67 71 64 61 56 62 66 68 67 60 70 73 73 71 72 73 72 71
59 58 58 59 59 60 60 59 62 62 63 64 60 62 69 81 80 83 80 79 80 81 79 89 74 67 69 62 57 59 53 52 60 66 65 62 61 71 73 73 70 70 71 71 69
59 58 58 58 59 59 58 59 62 62 64 68 72 64 73 76 84 86 81 83 81 79 78 75 64 61 58 58 52 55 55 52 58 66 64 59 59 68 70 72 71 70 69 69 69
58 58 57 58 58 59 56 61 65 63 64 67 71 72 78 84 87 82 85 83 79 73 64 64 60 54 59 59 61 60 57 57 63 68 63 63 61 69 68 69 68 68 68 68 68
57 57 57 57 58 57 55 67 68 67 58 73 73 75 82 83 76 81 83 74 71 64 65 62 55 64 65 65 63 60 57 59 64 65 63 59 62 67 68 70 71 70 68 68 64
56 57 57 57 56 59 57 68 69 63 60 69 75 73 75 79 74 76 81 75 69 62 60 58 64 71 68 64 63 57 57 58 63 65 63 62 57 61 68 69 72 72 70 69 66
56 56 56 56 61 54 63 69 68 65 53 64 70 74 76 79 73 84 84 78 66 65 64 61 68 69 65 65 64 55 67 67 66 59 53 60 47 57 64 67 69 71 67 67 66
55 55 55 55 50 55 69 65 68 67 43 71 71 80 75 75 75 77 83 77 68 69 67 64 66 66 64 67 69 64 68 66 63 55 52 53 51 54 60 61 67 67 69 68 67
55 55 55 53 49 56 61 63 65 53 44 67 74 70 68 70 75 77 75 78 76 67 66 66 71 70 70 73 71 70 64 58 52 50 46 50 51 51 53 63 71 71 71 70 68
55 55 52 57 57 58 59 64 51 44 66 65 68 71 67 68 70 73 69 64 62 55 54 63 65 69 74 64 65 62 54 44 43 43 44 52 50 55 60 64 65 70 70 71 69
53 52 51 55 52 57 61 58 43 57 60 71 69 69 66 67 68 69 65 61 63 62 54 53 54 65 71 67 63 55 55 46 40 39 45 51 47 55 65 65 64 68 72 69 67
51 46 47 53 57 58 56 44 49 55 67 66 68 63 62 67 65 63 62 62 66 64 57 51 55 68 72 71 70 59 53 56 46 42 43 46 53 62 65 63 64 64 66 65 66
46 44 49 58 59 57 52 46 52 62 67 65 56 61 55 60 60 59 59 66 67 68 65 60 53 66 71 69 67 63 63 52 46 39 37 44 46 50 58 59 60 61 61 62 63
46 49 61 60 59 54 45 46 56 65 66 61 58 57 59 59 60 57 61 67 68 68 64 58 54 59 63 60 59 59 53 49 49 45 40 38 45 56 60 62 60 60 63 63 64
43 47 61 63 51 46 45 53 60 64 66 64 62 61 59 59 58 59 61 65 70 67 60 59 52 50 58 64 66 63 57 52 44 44 42 42 44 62 62 62 62 62 65 66 67
39 42 57 59 45 45 51 59 63 62 62 61 60 62 61 56 52 58 60 69 69 66 59 58 49 45 50 56 61 57 58 53 48 45 42 41 44 62 60 62 64 63 62 66 66
41 41 48 50 48 48 48 52 55 64 63 64 61 61 58 55 57 56 59 67 68 67 64 61 48 49 46 52 54 52 59 55 51 42 45 45 50 60 63 62 63 62 64 64 66
40 41 44 41 46 45 45 51 53 53 60 59 57 58 54 49 52 52 57 60 65 64 59 57 50 50 53 58 58 58 57 55 53 52 49 53 51 59 62 62 64 63 66 62 64
40 40 43 41 44 45 46 47 53 55 55 54 53 58 55 51 55 52 54 54 56 57 54 52 50 48 50 58 58 55 58 59 57 57 53 55 52 60 64 61 62 64 63 62 62
42 44 42 42 42 42 44 49 52 53 56 59 57 54 53 58 61 59 58 57 56 54 52 52 48 45 42 53 54 46 54 58 58 58 59 52 57 61 61 63 63 63 63 64 64
MSLP
1018.43 1017.94 1017.42 1016.93 1016.38 1015.79 1015.28 1014.89 1014.49 1014.17 1013.94 1013.85 1013.84 1013.74 1013.60 1013.43 1013.03 1013.00 1011.80 1009.27 1009.05 1009.11 1009.29 1009.46 1009.64 1009.75 1009.94 1010.26 1010.52 1010.80 1011.91 1012.34 1012.12 1011.89 1011.68 1011.57 1011.55 1011.34 1010.90 1010.72 1010.43 1010.48 1011.52 1012.13 1013.34
1018.45 1018.01 1017.48 1016.94 1016.40 1015.80 1015.21 1014.70 1014.29 1013.92 1013.67 1013.63 1013.61 1013.47 1013.41 1013.27 1012.93 1011.66 1008.52 1008.52 1008.63 1008.99 1009.35 1009.49 1009.58 1009.54 1009.93 1010.08 1010.22 1010.61 1011.57 1011.04 1010.44 1010.49 1010.77 1010.92 1010.85 1010.73 1010.91 1011.20 1010.99 1011.02 1011.34 1012.39 1013.24
1018.48 1017.99 1017.41 1016.85 1016.27 1015.70 1015.21 1014.74 1014.26 1013.80 1013.54 1013.37 1013.26 1013.17 1013.21 1013.03 1012.31 1009.17 1007.44 1008.15 1008.57 1008.93 1009.22 1009.38 1009.40 1009.49 1009.78 1009.92 1009.65 1009.97 1010.06 1010.16 1010.07 1009.68 1009.51 1010.25 1010.68 1010.52 1010.88 1011.39 1010.86 1010.82 1011.87 1012.43 1013.20
1018.68 1018.06 1017.46 1016.82 1016.13 1015.59 1015.12 1014.65 1014.15 1013.70 1013.43 1013.23 1013.12 1013.01 1012.83 1012.68 1010.84 1007.81 1007.39 1007.80 1008.63 1008.91 1009.09 1009.24 1009.37 1009.47 1009.63 1009.75 1009.17 1009.72 1009.65 1010.00 1010.34 1010.22 1010.12 1010.16 1010.12 1010.73 1010.96 1010.59 1010.43 1010.76 1011.65 1012.57 1013.26
1018.70 1018.09 1017.48 1016.75 1015.96 1015.27 1014.94 1014.51 1013.98 1013.53 1013.23 1013.08 1012.94 1012.65 1012.39 1011.73 1009.36 1007.55 1007.68 1008.12 1008.76 1009.03 1008.96 1008.98 1009.05 1009.13 1009.36 1009.29 1009.30 1009.93 1010.38 1010.71 1010.68 1010.97 1010.76 1010.59 1010.96 1011.09 1011.23 1010.93 1010.80 1011.05 1011.75 1012.74 1013.34
1018.81 1018.14 1017.46 1016.68 1015.82 1014.94 1014.52 1014.08 1013.65 1013.27 1012.92 1012.84 1012.78 1012.50 1012.05 1010.37 1007.39 1007.51 1007.74 1008.34 1008.57 1008.76 1008.61 1008.69 1008.51 1008.69 1009.08 1009.07 1009.27 1010.11 1010.89 1011.59 1011.68 1011.83 1011.68 1011.36 1011.40 1011.29 1011.08 1010.85 1011.35 1011.32 1012.10 1012.60 1013.16
1018.86 1018.15 1017.43 1016.56 1015.64 1014.64 1014.02 1013.55 1013.05 1012.67 1012.57 1012.65 1012.63 1012.33 1011.59 1008.80 1007.48 1007.66 1007.96 1008.03 1007.97 1008.18 1008.22 1008.04 1008.09 1008.52 1008.50 1008.94 1009.75 1010.63 1011.82 1012.49 1012.49 1012.32 1012.21 1012.13 1012.16 1011.63 1011.06 1011.25 1011.65 1012.07 1012.68 1013.05 1013.42
1018.92 1018.21 1017.32 1016.46 1015.47 1014.40 1013.70 1012.91 1012.13 1011.97 1012.27 1012.43 1012.44 1012.19 1010.36 1007.64 1007.52 1007.81 1007.79 1007.72 1007.60 1007.68 1007.72 1007.50 1007.70 1008.32 1008.53 1009.02 1010.10 1011.01 1012.13 1012.80 1012.67 1012.81 1012.46 1012.88 1012.06 1011.39 1011.04 1011.23 1011.83 1012.51 1013.18 1013.71 1014.07
1018.92 1018.23 1017.25 1016.35 1015.30 1014.18 1013.23 1012.56 1011.87 1011.95 1012.29 1012.43 1012.38 1011.65 1009.34 1007.35 1007.52 1006.92 1007.23 1007.41 1007.12 1007.22 1007.35 1007.28 1007.69 1008.61 1008.97 1009.96 1011.21 1011.59 1012.19 1012.68 1012.70 1012.75 1012.82 1013.11 1012.07 1011.19 1011.08 1011.39 1012.36 1012.94 1013.52 1014.06 1014.53
1019.00 1018.17 1017.31 1016.31 1015.21 1014.05 1012.99 1012.44 1012.34 1012.28 1012.37 1012.37 1011.72 1011.31 1008.77 1007.55 1007.01 1006.66 1006.65 1006.98 1007.18 1007.27 1007.38 1007.77 1008.89 1009.38 1010.06 1010.33 1011.23 1011.31 1011.35 1011.83 1011.63 1011.87 1012.76 1012.90 1011.79 1011.28 1011.50 1011.69 1012.19 1013.02 1013.55 1014.14 1014.64
1019.22 1018.36 1017.31 1016.20 1015.08 1014.19 1013.08 1012.98 1013.18 1012.48 1011.86 1011.73 1010.70 1009.93 1008.49 1007.51 1006.64 1006.34 1006.40 1006.69 1007.08 1007.56 1008.20 1008.82 1009.83 1010.14 1010.01 1010.13 1010.25 1010.36 1010.58 1010.68 1010.05 1010.50 1011.73 1011.55 1011.71 1011.05 1011.46 1011.90 1012.39 1013.20 1013.85 1014.56 1014.68
1019.24 1018.36 1017.45 1016.23 1014.89 1014.12 1013.70 1013.84 1013.96 1013.91 1012.18 1009.95 1009.03 1008.61 1007.60 1007.50 1007.48 1006.24 1006.19 1006.65 1007.19 1008.03 1008.65 1009.46 1009.77 1009.43 1009.48 1009.58 1009.69 1009.75 1009.96 1009.95 1009.47 1009.49 1010.80 1011.47 1011.40 1011.38 1011.45 1011.00 1011.12 1012.22 1013.40 1014.04 1014.92
1019.48 1018.62 1017.52 1016.16 1014.80 1014.09 1014.68 1013.56 1013.46 1013.48 1012.64 1008.77 1007.82 1007.26 1006.71 1007.22 1007.11 1006.25 1006.44 1006.50 1007.24 1008.07 1008.80 1009.50 1008.92 1008.77 1008.98 1008.88 1009.09 1009.18 1009.61 1009.61 1009.77 1010.22 1010.48 1011.13 1012.18 1011.68 1011.35 1011.26 1011.76 1012.42 1012.95 1013.52 1013.88
1019.48 1018.84 1018.16 1016.41 1014.99 1015.62 1014.14 1013.09 1012.80 1012.76 1012.03 1008.83 1007.08 1005.93 1006.12 1006.31 1006.40 1005.50 1005.75 1006.45 1007.37 1007.82 1008.71 1008.96 1008.45 1008.36 1008.49 1008.63 1008.85 1009.26 1008.78 1009.25 1009.65 1010.33 1010.86 1011.17 1012.78 1011.93 1011.33 1011.15 1011.57 1012.08 1012.80 1013.39 1013.93
1019.32 1018.80 1018.32 1017.88 1017.36 1016.06 1013.68 1013.00 1012.44 1012.30 1011.32 1007.66 1006.15 1005.01 1005.58 1006.00 1005.67 1005.27 1005.41 1006.05 1006.95 1007.60 1008.25 1008.28 1007.98 1007.71 1007.79 1007.57 1007.95 1008.42 1008.44 1009.31 1009.74 1010.77 1011.30 1011.89 1012.34 1011.34 1011.36 1011.68 1011.34 1011.36 1011.76 1012.34 1012.81
1019.15 1018.69 1018.44 1017.78 1017.57 1014.95 1013.83 1013.30 1012.70 1012.60 1010.11 1007.22 1005.76 1005.55 1005.91 1005.80 1005.63 1005.43 1005.65 1005.90 1006.50 1007.47 1007.80 1007.82 1007.37 1007.19 1006.65 1006.41 1006.98 1007.70 1008.92 1010.13 1011.23 1011.90 1012.75 1012.12 1012.34 1011.84 1011.38 1010.40 1009.93 1010.28 1010.76 1011.48 1012.39
1018.63 1018.17 1018.52 1017.71 1015.74 1014.25 1014.00 1013.66 1013.61 1012.41 1009.46 1007.93 1006.87 1006.38 1006.24 1006.13 1006.01 1006.01 1006.28 1006.60 1007.16 1007.82 1008.26 1007.83 1007.23 1006.56 1006.07 1006.45 1007.08 1007.91 1009.77 1011.51 1012.89 1013.57 1013.38 1012.40 1012.60 1011.28 1010.16 1009.76 1009.45 1009.34 1009.42 1009.92 1011.30
1018.31 1017.32 1016.33 1015.50 1014.76 1014.61 1014.46 1014.30 1013.68 1011.43 1009.79 1008.26 1007.54 1006.72 1006.66 1006.50 1006.30 1006.32 1006.75 1007.14 1007.22 1007.79 1008.65 1008.39 1007.52 1006.45 1005.85 1006.22 1007.25 1008.41 1009.55 1011.42 1012.94 1014.17 1013.69 1012.98 1012.03 1010.35 1009.62 1008.89 1008.14 1008.30 1009.08 1010.62 1011.51
1018.13 1016.82 1016.24 1014.21 1014.30 1014.57 1014.96 1014.73 1012.78 1011.33 1009.90 1009.07 1007.85 1007.44 1007.46 1007.19 1007.05 1006.91 1007.08 1007.04 1006.95 1007.55 1008.27 1008.23 1007.60 1006.42 1006.00 1006.10 1006.75 1008.40 1009.80 1010.79 1012.74 1014.19 1014.01 1012.90 1011.49 1010.29 1009.53 1009.16 1008.66 1009.05 1009.77 1010.88 1011.68
1018.69 1017.54 1015.72 1013.72 1013.95 1014.26 1014.81 1014.44 1012.73 1011.18 1010.21 1009.62 1009.30 1008.59 1008.53 1008.24 1007.83 1007.57 1007.32 1006.71 1006.59 1006.72 1006.91 1007.72 1007.81 1006.60 1006.02 1006.09 1006.70 1007.37 1008.89 1011.05 1012.76 1014.38 1014.64 1013.45 1012.34 1011.10 1010.12 1009.98 1009.95 1010.10 1010.44 1011.11 1011.91
1018.83 1017.43 1014.15 1013.63 1014.18 1014.51 1014.87 1013.92 1012.31 1011.03 1010.29 1010.02 1009.68 1009.43 1009.09 1008.74 1008.30 1008.03 1007.56 1006.90 1006.49 1006.79 1007.20 1008.14 1008.34 1007.28 1006.94 1006.91 1007.27 1008.24 1009.09 1010.96 1012.46 1013.66 1014.26 1013.80 1012.42 1010.04 1009.58 1009.47 1009.72 1009.99 1010.15 1010.50 1011.09
1019.33 1017.80 1014.41 1013.98 1014.92 1014.86 1014.42 1013.15 1011.78 1010.92 1010.46 1010.27 1009.74 1009.64 1009.34 1009.06 1008.61 1008.10 1007.39 1006.75 1006.32 1006.62 1007.40 1007.99 1008.52 1008.75 1007.78 1007.13 1007.01 1007.47 1008.73 1010.30 1012.51 1013.98 1014.12 1013.38 1011.15 1009.24 1009.14 1009.15 1009.24 1009.35 1009.65 1010.04 1010.31
1020.42 1018.28 1014.64 1014.40 1015.09 1015.12 1013.96 1012.83 1011.71 1011.09 1010.60 1010.44 1009.99 1009.54 1009.27 1009.44 1009.43 1008.09 1007.19 1006.40 1006.42 1006.57 1007.22 1008.11 1009.11 1009.31 1008.93 1008.51 1007.64 1007.77 1008.41 1009.83 1011.37 1012.47 1013.33 1013.09 1010.54 1009.03 1008.83 1008.78 1008.73 1008.94 1009.19 1009.48 1009.80
1020.93 1019.41 1016.62 1015.44 1015.26 1014.86 1014.19 1013.08 1011.99 1010.91 1010.66 1010.32 1010.04 1009.72 1009.66 1009.23 1008.80 1008.23 1007.51 1006.79 1006.85 1006.89 1007.31 1008.20 1009.60 1009.75 1009.29 1008.64 1008.19 1008.10 1008.28 1009.16 1010.28 1011.90 1012.20 1011.67 1010.36 1009.33 1008.73 1008.64 1008.44 1008.46 1008.55 1008.85 1009.42
1021.35 1020.22 1019.07 1017.50 1016.54 1015.90 1014.92 1013.65 1012.44 1011.73 1010.90 1010.59 1010.31 1010.14 1010.31 1010.13 1009.37 1008.69 1007.89 1007.47 1007.14 1007.27 1008.02 1008.83 1009.79 1009.83 1009.23 1008.63 1008.37 1008.23 1008.48 1009.20 1009.72 1010.10 1010.66 1010.24 1009.94 1008.98 1008.35 1008.02 1007.78 1007.76 1008.30 1008.77 1009.13
1021.93 1021.11 1019.92 1018.70 1017.44 1016.55 1015.26 1014.08 1012.91 1012.04 1011.56 1011.14 1011.12 1010.74 1010.39 1010.20 1009.53 1009.28 1008.64 1008.11 1007.79 1008.02 1008.50 1009.58 1010.13 1010.17 1009.72 1008.94 1008.61 1008.47 1008.39 1008.49 1008.65 1009.07 1009.40 1009.25 1008.97 1007.95 1007.14 1007.25 1007.26 1007.27 1007.67 1008.27 1008.72
1021.89 1021.37 1020.84 1019.19 1018.09 1017.10 1015.82 1014.70 1013.68 1013.15 1012.04 1011.54 1011.49 1011.22 1010.52 1009.60 1008.95 1008.85 1008.73 1008.57 1008.40 1008.53 1009.41 1010.09 1010.67 1011.30 1011.01 1010.06 1009.40 1008.62 1007.77 1007.50 1007.58 1007.60 1007.89 1008.06 1007.46 1007.41 1007.19 1006.96 1006.50 1006.65 1007.01 1007.08 1007.66
Wind_Speed
19 18 17 16 16 16 15 13 11 9 8 8 8 8 9 9 11 2 6 11 7 4 3 2 2 0 3 2 4 4 5 2 7 9 5 3 4 4 3 8 3 6 8 9 15
19 18 17 17 16 16 16 14 12 10 8 7 7 6 7 7 2 7 13 7 9 7 3 2 2 3 3 1 2 5 4 8 8 9 10 10 9 10 6 4 2 8 11 16 18
20 20 19 18 18 16 15 14 12 10 8 7 6 6 8 4 3 8 4 11 9 7 3 2 1 2 1 1 3 4 5 5 5 5 16 11 7 4 10 4 6 18 17 18 17
21 21 21 20 19 17 15 14 12 11 9 7 5 5 7 2 2 2 1 14 9 7 2 2 3 2 1 1 6 3 2 6 3 4 6 8 6 6 2 4 10 16 18 17 16
22 23 22 22 21 19 16 13 12 11 9 7 5 4 1 2 9 1 10 11 7 5 4 3 2 2 1 3 0 4 3 6 4 5 5 6 5 3 2 3 9 9 16 14 11
23 23 23 23 23 22 19 15 11 11 9 7 4 3 2 3 2 6 9 7 5 5 4 5 3 3 3 3 1 5 8 5 6 5 4 6 2 2 6 4 6 8 9 8 11
23 24 24 24 25 24 23 19 13 10 8 6 4 1 3 11 3 5 7 5 7 5 3 5 4 2 3 1 3 9 8 7 5 3 2 3 4 5 3 5 6 8 8 9 7
23 25 25 26 26 26 24 22 16 6 6 6 4 1 7 4 4 4 4 5 5 5 3 5 4 3 1 3 7 6 6 6 4 2 2 3 9 7 7 11 9 9 9 10 7
24 25 26 27 28 27 26 20 6 8 4 7 2 1 9 5 1 5 6 4 2 4 4 3 2 3 6 7 6 6 5 2 2 5 1 4 6 7 8 8 7 10 10 9 8
24 26 26 28 28 27 28 4 8 7 3 4 3 2 4 3 5 4 6 3 4 4 5 6 7 4 4 6 5 5 3 4 8 11 7 5 11 5 5 9 10 11 11 11 12
23 25 27 29 29 28 11 2 8 6 3 6 10 5 13 7 6 3 3 6 3 4 3 3 5 4 6 3 3 1 2 3 5 9 11 21 6 13 8 6 9 10 11 10 10
25 26 27 29 30 25 3 7 5 3 13 10 14 11 12 4 5 9 2 4 4 3 2 7 4 9 5 4 4 3 2 7 10 6 7 10 18 10 11 15 19 17 14 13 7
23 25 26 31 33 4 3 2 1 2 4 9 6 6 5 10 8 11 6 3 3 2 2 6 6 4 2 4 3 3 2 5 8 5 4 9 5 4 7 5 7 8 10 11 18
23 22 23 33 5 6 6 6 7 3 4 8 4 7 5 6 6 9 9 6 0 7 6 5 4 3 4 7 9 4 7 6 4 4 4 3 5 6 11 14 11 13 12 15 14
23 22 19 15 6 5 7 11 12 3 4 1 2 2 5 10 3 3 5 4 6 5 6 8 5 6 5 9 8 12 7 9 3 3 5 1 4 7 7 11 17 14 16 15 16
23 22 21 1 2 9 11 11 3 7 7 6 4 4 5 2 2 2 1 4 2 4 2 7 4 5 9 5 7 5 5 8 6 4 2 4 6 6 6 17 24 18 19 18 16
26 24 16 3 6 2 6 4 6 4 6 4 3 2 3 6 3 6 4 5 7 3 3 5 4 5 5 2 3 7 8 3 4 4 6 4 3 10 6 9 9 17 22 23 18
27 30 6 7 5 3 4 6 3 4 5 4 4 6 7 3 5 5 4 4 3 3 3 3 8 3 1 5 7 0 8 8 7 4 6 4 6 6 7 8 4 13 14 14 17
26 4 5 5 8 3 6 3 8 6 3 5 7 4 4 5 1 0 5 7 8 8 8 6 7 4 3 4 9 5 3 5 8 4 3 4 4 7 6 7 8 8 11 13 13
5 5 5 3 7 4 6 6 5 4 3 5 1 1 3 3 2 3 2 4 7 10 5 7 2 4 4 1 4 8 8 4 4 4 3 5 4 7 5 4 4 8 11 9 9
3 5 5 5 2 6 5 8 5 7 2 1 2 3 5 4 6 5 5 5 3 5 6 5 4 9 2 3 7 1 2 7 6 5 7 3 8 8 10 10 11 10 13 16 17
3 3 4 2 4 0 4 7 4 2 4 4 3 8 6 2 4 6 8 5 1 1 2 4 6 6 8 5 3 7 6 6 7 4 0 4 9 6 9 9 9 12 13 13 15
3 5 3 4 3 3 5 3 4 2 3 3 4 4 3 3 3 7 5 5 1 2 2 4 1 1 9 8 5 3 5 6 6 4 7 6 9 3 2 5 10 10 9 13 15
3 4 5 4 1 3 3 5 5 3 5 6 6 5 5 5 8 5 5 2 1 2 8 6 4 7 9 10 3 3 5 5 7 5 5 7 6 7 7 8 9 10 9 12 14
1 4 1 4 1 3 2 3 1 2 3 1 5 3 2 5 6 5 5 2 2 2 4 6 4 5 6 6 3 4 2 4 5 5 7 8 9 9 10 10 13 9 9 7 12
1 2 5 4 4 4 2 4 4 3 3 4 5 7 6 6 8 5 3 4 4 1 3 1 3 1 3 4 5 5 6 9 7 5 5 7 9 11 10 7 7 10 9 11 11
3 3 1 4 4 3 4 3 4 4 6 5 4 5 5 7 6 6 4 3 4 5 2 3 5 3 5 4 6 8 8 9 6 6 7 9 10 7 8 10 10 9 12 15 15
Wind_Direction
357 352 350 344 339 338 339 333 321 306 294 287 287 289 300 307 303 145 242 217 174 176 120 297 140 83 103 175 175 141 66 166 181 155 167 153 146 214 198 173 225 152 131 165 150
355 351 348 344 339 337 336 334 329 313 296 286 286 298 302 307 274 237 244 193 223 158 118 10 58 24 17 216 234 107 121 213 187 164 166 173 180 169 145 188 355 77 101 133 150
353 350 348 344 340 338 332 330 326 317 292 286 294 306 291 310 284 250 226 192 177 146 93 139 142 112 108 277 225 177 197 178 211 192 164 157 177 204 143 190 196 147 149 159 163
351 349 345 342 339 337 329 321 321 316 292 274 274 282 298 222 164 265 261 171 127 114 119 163 69 137 148 190 237 175 21 121 155 173 122 165 96 112 225 226 167 152 154 165 173
350 348 344 340 336 334 327 316 313 311 286 262 262 303 156 344 252 180 107 117 117 128 194 192 128 148 10 268 314 100 61 75 81 10 47 55 64 81 12 18 136 142 149 174 182
349 346 343 339 332 331 326 322 307 297 284 254 253 281 46 310 242 154 133 119 132 174 194 176 217 175 217 270 49 117 87 60 25 4 359 112 4 13 192 148 124 139 131 145 150
349 344 341 338 332 329 326 323 304 285 263 227 225 263 96 239 9 164 156 186 172 180 221 205 184 123 170 342 78 105 86 48 338 342 309 152 336 250 199 138 104 111 117 117 114
348 342 341 337 332 326 329 325 318 276 210 190 197 210 254 244 112 158 149 282 191 208 229 241 199 208 94 131 45 74 62 119 242 343 282 6 242 219 194 163 149 134 134 125 100
344 340 339 336 331 329 330 328 11 124 141 165 168 117 273 320 195 228 150 240 180 191 221 272 60 84 25 89 42 351 158 180 14 197 271 184 239 234 183 171 150 154 148 140 123
343 339 337 333 329 331 329 327 115 114 129 215 254 11 293 321 293 249 196 208 264 325 11 52 44 40 45 69 181 176 140 159 176 212 228 212 263 260 178 174 174 160 156 153 151
341 338 336 331 329 329 347 69 8 349 34 220 251 225 277 279 301 297 261 143 125 67 171 14 67 228 242 151 131 122 140 280 248 200 162 218 238 222 171 166 165 170 165 173 168
338 337 334 329 326 323 321 87 87 287 298 238 233 239 246 75 314 296 181 133 119 179 103 19 260 232 225 185 178 151 13 295 286 143 148 175 228 230 186 199 187 176 178 175 153
336 334 334 327 321 13 290 155 53 287 259 300 220 206 211 142 215 262 154 156 157 145 147 159 232 80 183 298 344 329 223 255 218 146 67 116 339 198 232 192 188 206 199 178 173
331 332 336 330 46 324 297 310 329 260 30 277 250 265 143 131 275 216 188 141 183 207 169 227 262 210 212 233 145 243 208 212 243 117 184 142 234 246 216 215 204 200 192 189 179
327 330 336 333 296 321 278 336 322 64 341 280 213 104 156 148 224 258 178 82 184 206 110 245 295 339 305 233 138 227 169 188 158 119 107 282 99 255 138 229 223 208 203 196 181
323 324 335 28 283 246 313 309 33 45 256 315 155 181 125 226 287 79 127 72 160 177 208 235 239 200 223 251 177 131 97 51 49 83 54 236 131 283 186 213 228 208 204 196 182
318 315 317 252 237 336 319 19 41 160 314 342 0 334 209 204 235 180 174 185 185 127 309 333 264 277 203 104 38 80 66 353 347 11 204 160 76 234 265 233 209 222 208 195 173
315 313 253 212 237 281 13 51 195 243 254 327 309 272 181 185 246 192 161 223 242 109 119 162 323 210 229 148 192 185 145 153 197 204 243 205 228 253 254 299 301 219 208 166 170
316 312 285 259 200 139 83 110 211 211 303 359 335 55 30 7 122 281 211 213 198 169 174 156 272 288 201 201 145 181 157 180 102 15 72 260 289 332 329 346 64 94 141 174 173
321 339 277 310 152 89 84 228 237 238 29 19 253 21 9 310 8 29 231 260 239 192 154 219 280 208 270 100 65 159 155 80 14 138 230 291 273 240 253 221 157 154 170 167 154
348 355 281 142 86 49 173 224 267 250 13 318 241 302 231 243 192 209 216 282 51 9 161 142 119 278 49 181 184 317 94 52 112 126 162 212 263 219 216 199 193 198 184 175 179
352 339 251 67 33 247 180 193 224 263 69 277 246 213 234 264 276 222 206 221 81 78 210 214 161 224 204 301 239 167 163 131 117 240 176 172 261 214 230 212 202 204 199 199 194
348 268 310 123 203 260 284 254 221 220 166 261 290 231 247 249 271 215 219 248 97 89 196 179 287 300 332 353 343 207 173 118 116 94 189 163 261 343 251 246 232 213 202 197 197
354 327 311 34 347 191 254 259 236 245 236 221 243 251 308 262 202 254 217 256 306 199 91 83 143 167 204 214 178 199 184 143 127 126 191 218 270 286 262 246 251 240 219 201 191
84 259 221 303 348 352 289 302 258 286 258 259 318 257 257 278 321 234 231 258 284 155 85 116 216 181 238 242 197 203 241 153 180 199 164 233 204 244 248 243 236 234 266 160 178
317 359 346 286 302 311 226 251 237 270 213 240 215 320 296 221 208 252 254 189 201 82 118 38 249 210 279 279 243 236 205 229 212 187 230 228 245 230 251 240 254 233 186 179 194
313 319 131 281 322 11 245 337 334 343 274 235 9 299 288 246 215 218 218 213 172 143 147 133 134 101 260 284 322 313 204 211 214 191 183 224 238 248 261 246 235 224 197 190 192